Vertical_Velocity
3 7 -1 2 2 -1 -1 -1 1 5 4 -1 11 -1 3 2 1 -1 -1 3 -3 1 0 2 -3 3 2 -1 -2 -0 -1 -2 -3 -5 0 -1 -1 0 2 1 -2 -1 -0 -2 0
-1 11 36 2 0 -1 -1 -1 2 2 9 30 5 3 -1 -1 -1 3 -2 -1 4 0 -0 1 2 2 -0 -3 1 0 -2 0 -1 -2 -0 -0 -1 2 2 -3 -5 1 -2 -0 -1
-4 -3 -6 2 1 3 1 -5 1 -1 10 -5 3 0 3 4 2 0 1 -2 1 1 1 1 2 1 -1 1 1 2 1 -3 -3 0 -0 -2 -2 -0 1 -6 -3 0 -4 -1 -1
-1 3 -6 -1 -5 4 1 0 4 -2 1 27 5 2 -7 -2 -12 -1 3 3 -4 -0 3 -0 2 2 2 1 0 -0 1 1 1 -1 -1 -1 -1 3 -3 -6 1 -1 2 -0 -2
2 2 2 -1 -4 -2 22 -1 -2 -4 -0 14 9 10 6 -9 6 0 0 3 2 -1 3 -1 2 0 3 -1 -1 0 -0 0 -1 -1 -3 -1 -3 0 -12 -0 -4 2 -3 -2 -1
2 2 -4 -3 -5 -6 15 -6 5 -4 -4 5 8 2 2 3 -1 1 0 0 4 1 -1 -0 2 1 1 -1 0 -1 -2 -1 -3 -1 -2 -2 -3 -0 -8 -11 -4 -2 -1 -1 -2
-4 -8 -6 -5 0 2 2 -2 5 -3 6 -15 -13 13 3 9 3 2 3 0 0 4 -0 -2 -0 1 2 -1 -1 -2 -3 -2 -2 -2 -1 -2 -3 1 -9 -2 -1 -2 -1 -2 -3
-6 -4 -4 -6 5 -1 4 -1 4 4 4 -5 3 10 5 6 3 -2 -3 -1 0 1 -1 1 -0 1 -1 1 -3 -1 -2 -3 5 -3 1 -0 6 2 -7 -6 3 -2 -2 -2 -4
-5 -3 6 16 10 6 -7 -0 9 6 2 5 10 21 9 -0 -6 2 -1 1 -1 0 0 2 -0 1 0 -1 -1 -1 -6 3 1 -7 3 -5 10 -10 -8 -5 2 -3 -4 -4 -2
-5 2 3 0 -5 -2 -2 -4 2 0 -7 12 18 15 8 3 0 -2 -4 2 2 1 2 3 1 -0 -1 -0 -1 -1 -5 3 -9 6 -4 -5 8 -4 -8 -4 1 -3 -2 -3 -5
-0 -1 -1 4 1 -4 -1 -4 2 -3 4 9 6 6 7 6 5 0 4 1 2 -0 -1 0 0 -1 -2 -1 -1 -1 -3 0 -6 2 -0 -8 5 -9 1 -3 -5 -3 -5 -6 -6
-2 1 2 0 -0 4 -1 0 15 3 -18 3 7 4 12 11 -0 0 0 -1 -3 -3 -4 -3 -0 -1 -1 -3 -5 -3 -1 -1 -5 1 -5 -6 8 -4 -2 -1 -4 -7 -6 -1 1
-2 -1 0 -0 1 -2 7 4 9 15 -4 6 10 5 14 6 -1 1 3 3 0 -1 -1 -2 0 1 -1 -2 1 -1 -1 -0 -2 0 -10 -2 -0 -5 1 -4 -5 -3 -2 -0 5
-3 -9 -1 10 2 -7 -0 0 9 8 0 -7 -3 -3 -2 -6 -2 1 3 2 2 1 1 -1 -1 -1 -1 -1 -0 1 -3 -1 -1 -2 -3 -3 -2 -4 -0 -4 -1 -4 -3 -3 -0
-5 6 -1 3 -2 -7 -6 0 -3 -3 -5 -3 -3 -1 -3 -2 3 -1 -1 -2 1 -1 -2 -2 -1 -1 0 -0 -2 -4 -2 -1 -1 -2 -2 -1 -3 -4 -5 -3 -5 -3 -4 -3 -7
3 0 1 4 1 1 -1 -1 -5 -6 -9 -1 -3 -2 1 2 1 1 0 -1 -2 -2 -3 -2 -1 -2 -2 -2 -2 -2 -2 -2 -4 -2 -1 -2 -5 2 -3 0 -3 -1 -4 -4 -5
-5 -5 -5 -2 -0 -0 -2 -4 -2 -3 -1 1 -2 1 1 -2 -3 -1 -3 -1 -0 0 -0 -1 -1 -0 -0 -1 -2 -1 -2 -1 -2 -1 -4 -2 -2 -6 -2 -4 0 -1 -7 -3 -4
4 -0 1 2 2 -1 -0 -5 9 2 -1 -7 -6 -7 -4 -1 2 2 1 0 -1 -2 -1 0 2 0 0 -1 -1 -1 -0 1 -1 -1 -5 -1 -3 -2 -0 -2 0 -2 -3 -2 -3
0 2 -5 -1 -3 -2 -1 1 4 -0 0 -0 -2 -1 -1 -1 -2 -4 -3 -3 -3 -1 -2 -2 -2 -3 -3 -2 -1 -3 -2 -0 -2 -3 -1 -2 -1 -3 -2 -3 -4 -5 -2 -5 -2
-4 2 -1 -1 -1 -1 2 -3 -6 1 -1 -3 1 -3 -6 -6 -5 -5 -5 -4 -6 -1 -3 -4 -4 -3 -4 -2 -3 -4 -2 -0 -2 -2 -1 -0 -1 -4 -3 -3 -1 -2 -3 0 -6
-3 8 2 1 -8 -6 5 -4 -4 -4 -1 -1 -4 -2 -1 -3 -5 -6 -3 -2 -1 -3 -2 -1 -1 -2 -2 -3 -2 -1 -1 -1 -2 -2 -5 -4 2 -3 1 -0 -1 -2 -2 -0 -1
2 2 1 -4 -6 8 -3 -1 -3 -4 -6 -6 -5 -5 -3 -4 -2 -1 -0 0 -1 -1 -1 -1 -1 -1 -1 -1 -2 -2 -2 -0 0 -2 3 -4 19 1 -0 -1 -1 -2 -2 -2 -3
2 0 -3 -10 -2 -1 -4 -4 -3 -5 -5 -5 -2 -2 -0 -1 -0 0 0 -1 -1 -2 -2 -3 -4 -2 -3 -3 -2 -0 -0 0 -1 -1 3 -6 -10 0 1 0 -2 -2 -2 -3 -3
-2 -1 -1 -1 -1 -2 -2 -5 -3 -2 -2 -2 -1 -1 -0 -0 -2 -2 -2 -2 -3 -3 -3 -3 -2 -2 -3 -3 -3 -2 -1 1 -2 -1 -0 -7 4 -6 1 -1 -0 -1 -1 -2 -2
1 1 -2 1 1 1 -2 -4 -6 -4 -1 -1 -0 1 1 1 0 -3 -2 -1 0 1 1 0 -1 0 -4 -1 -2 0 -0 -3 -1 -2 -1 -5 -2 -3 -2 0 0 -0 -1 -1 -1
-3 0 0 1 0 -1 1 3 2 -0 -1 -1 -1 -2 -1 -2 -0 -1 0 1 0 2 1 3 4 4 2 -2 -2 1 -2 -1 -1 -2 2 1 1 3 -2 -3 -2 -1 -0 -2 -2
0 -4 -2 -0 1 -0 -2 -1 1 2 1 -0 1 0 1 0 -0 -1 -2 -1 -1 -1 1 -0 -1 1 14 -2 1 -1 1 1 1 -2 -1 -1 -1 0 0 0 -1 -1 -2 -2 -1
Height
5572 5580 5583 5589 5594 5601 5607 5615 5628 5643 5657 5669 5683 5684 5694 5704 5714 5724 5733 5742 5747 5753 5759 5763 5767 5772 5776 5781 5784 5786 5790 5792 5795 5798 5801 5802 5804 5806 5807 5806 5808 5810 5811 5811 5813
5562 5570 5573 5578 5582 5588 5597 5608 5620 5635 5653 5660 5667 5676 5685 5695 5705 5717 5727 5735 5743 5749 5754 5759 5764 5769 5772 5777 5781 5784 5787 5790 5792 5795 5798 5799 5801 5802 5803 5802 5804 5806 5806 5808 5807
5558 5562 5568 5572 5573 5578 5587 5599 5613 5627 5642 5651 5660 5670 5680 5689 5700 5710 5721 5730 5738 5744 5749 5755 5761 5765 5770 5773 5777 5780 5783 5786 5788 5790 5793 5795 5797 5798 5798 5797 5800 5801 5801 5802 5801
5556 5559 5563 5566 5569 5575 5580 5589 5604 5618 5633 5643 5654 5665 5673 5682 5694 5705 5714 5725 5734 5741 5746 5752 5757 5762 5766 5770 5773 5776 5778 5781 5784 5786 5788 5790 5791 5792 5792 5792 5794 5795 5795 5795 5794
5554 5556 5558 5562 5566 5570 5576 5580 5595 5610 5627 5636 5649 5658 5669 5677 5688 5699 5710 5719 5728 5737 5743 5748 5753 5758 5762 5766 5770 5772 5774 5777 5779 5781 5782 5784 5784 5785 5785 5787 5787 5786 5787 5786 5785
5549 5552 5555 5559 5560 5564 5571 5578 5591 5606 5621 5626 5640 5654 5666 5675 5683 5693 5705 5715 5723 5731 5739 5744 5750 5754 5759 5762 5766 5768 5771 5772 5774 5775 5776 5777 5778 5778 5778 5777 5778 5778 5777 5776 5775
5546 5548 5550 5551 5552 5561 5571 5578 5589 5605 5619 5629 5643 5654 5662 5672 5680 5689 5700 5710 5720 5727 5734 5741 5746 5751 5755 5758 5761 5764 5766 5767 5769 5769 5770 5771 5771 5771 5770 5771 5770 5769 5768 5765 5763
5546 5545 5545 5544 5551 5564 5572 5578 5588 5604 5616 5628 5641 5654 5665 5671 5680 5689 5697 5706 5715 5724 5730 5737 5742 5747 5751 5754 5757 5759 5761 5762 5764 5763 5764 5764 5764 5762 5762 5763 5762 5760 5757 5755 5752
5550 5549 5550 5552 5558 5566 5575 5581 5592 5605 5617 5628 5641 5654 5661 5669 5678 5687 5695 5703 5712 5720 5727 5733 5738 5743 5747 5750 5753 5754 5755 5756 5757 5756 5756 5756 5756 5753 5754 5754 5754 5752 5749 5746 5742
5559 5559 5560 5563 5568 5574 5579 5585 5594 5608 5619 5632 5647 5657 5662 5670 5679 5686 5693 5701 5709 5717 5724 5730 5735 5739 5743 5746 5748 5750 5750 5751 5750 5752 5749 5749 5750 5747 5747 5746 5744 5742 5739 5735 5730
5568 5568 5568 5570 5574 5579 5584 5592 5605 5617 5626 5639 5650 5660 5662 5670 5679 5685 5693 5701 5708 5716 5723 5728 5733 5736 5739 5741 5743 5745 5746 5745 5745 5745 5744 5743 5743 5741 5740 5739 5735 5732 5729 5725 5719
5576 5575 5574 5577 5580 5586 5594 5604 5616 5626 5634 5644 5654 5662 5668 5675 5683 5689 5697 5706 5711 5716 5722 5727 5730 5732 5734 5736 5738 5739 5740 5740 5740 5739 5738 5738 5737 5736 5734 5730 5727 5724 5720 5715 5708
5588 5586 5585 5586 5591 5599 5607 5615 5625 5634 5642 5649 5659 5666 5673 5682 5689 5695 5701 5707 5711 5715 5719 5723 5726 5727 5729 5731 5732 5733 5734 5734 5735 5733 5732 5732 5732 5730 5727 5723 5720 5715 5711 5705 5698
5607 5605 5605 5607 5610 5612 5619 5627 5633 5641 5650 5660 5666 5672 5679 5686 5690 5695 5699 5705 5708 5712 5716 5719 5722 5723 5725 5726 5728 5729 5729 5729 5729 5729 5728 5727 5727 5723 5721 5717 5713 5708 5702 5694 5684
5628 5627 5625 5625 5628 5631 5636 5640 5646 5654 5659 5667 5673 5679 5684 5688 5692 5696 5700 5704 5708 5711 5715 5717 5718 5720 5722 5723 5724 5725 5725 5725 5724 5723 5723 5722 5721 5718 5715 5711 5707 5699 5692 5683 5673
5647 5644 5643 5642 5643 5645 5649 5653 5658 5664 5667 5671 5677 5684 5688 5693 5697 5700 5703 5706 5708 5711 5713 5715 5716 5718 5719 5720 5720 5721 5721 5721 5720 5719 5718 5716 5716 5714 5710 5706 5701 5694 5686 5679 5669
5662 5659 5657 5657 5659 5660 5663 5668 5671 5674 5675 5679 5684 5688 5693 5697 5698 5700 5703 5706 5709 5711 5712 5714 5715 5716 5717 5718 5718 5718 5717 5716 5716 5714 5713 5712 5711 5709 5706 5701 5694 5690 5684 5676 5666
5675 5673 5671 5671 5671 5673 5675 5678 5681 5682 5685 5688 5692 5695 5698 5700 5702 5704 5705 5707 5708 5709 5711 5712 5714 5714 5715 5715 5715 5714 5714 5714 5712 5711 5710 5709 5707 5704 5700 5696 5692 5687 5680 5673 5664
5686 5685 5682 5682 5682 5684 5686 5688 5689 5689 5691 5694 5697 5700 5702 5704 5705 5706 5706 5707 5707 5708 5710 5710 5712 5713 5713 5713 5713 5713 5712 5711 5710 5709 5707 5706 5702 5699 5696 5693 5688 5683 5678 5671 5663
5698 5695 5692 5692 5691 5692 5694 5697 5696 5698 5699 5702 5704 5706 5707 5708 5710 5710 5711 5711 5712 5712 5713 5714 5715 5715 5715 5714 5714 5712 5712 5711 5709 5707 5705 5702 5699 5697 5694 5690 5685 5680 5675 5669 5662
5712 5710 5705 5701 5698 5698 5702 5703 5703 5704 5705 5708 5708 5709 5711 5713 5714 5715 5716 5716 5715 5716 5716 5716 5717 5717 5716 5714 5713 5712 5710 5708 5706 5704 5701 5698 5698 5693 5690 5686 5682 5676 5671 5666 5661
5723 5722 5718 5715 5713 5713 5712 5712 5712 5712 5713 5714 5715 5716 5717 5718 5719 5719 5720 5719 5719 5719 5718 5718 5717 5715 5714 5712 5711 5708 5706 5704 5701 5700 5697 5692 5694 5689 5686 5682 5677 5673 5668 5663 5658
5734 5730 5729 5727 5726 5724 5722 5721 5721 5721 5721 5721 5722 5723 5723 5723 5723 5723 5722 5721 5720 5719 5718 5717 5715 5713 5711 5710 5707 5704 5702 5700 5698 5695 5694 5689 5687 5683 5680 5677 5674 5670 5666 5662 5657
5743 5740 5737 5735 5734 5734 5732 5731 5730 5729 5729 5728 5728 5728 5728 5727 5726 5725 5723 5722 5720 5719 5717 5716 5713 5711 5709 5707 5704 5702 5699 5697 5694 5692 5690 5685 5684 5679 5677 5674 5670 5667 5663 5659 5654
5746 5745 5742 5740 5738 5737 5737 5736 5735 5735 5733 5732 5731 5730 5729 5728 5727 5726 5724 5722 5721 5719 5717 5714 5712 5709 5704 5702 5699 5697 5695 5692 5690 5687 5684 5681 5678 5674 5672 5670 5667 5663 5659 5656 5652
5750 5748 5745 5744 5741 5739 5739 5739 5737 5736 5735 5734 5732 5730 5729 5728 5727 5725 5723 5721 5719 5717 5715 5712 5710 5708 5705 5700 5696 5694 5691 5688 5685 5682 5680 5677 5674 5670 5667 5664 5662 5659 5655 5652 5648
5750 5749 5749 5746 5744 5743 5740 5739 5738 5737 5737 5735 5734 5732 5730 5728 5726 5725 5723 5720 5718 5716 5713 5709 5706 5704 5703 5697 5693 5691 5686 5683 5680 5677 5674 5671 5669 5667 5664 5660 5656 5653 5649 5646 5643